�������l�o���
Date,Time,MP-1(��Sv/h),MP-2(��Sv/h),MP-3(��Sv/h),MP-4(��Sv/h),MP-5(��Sv/h),MP-6(��Sv/h),MP-7(��Sv/h),MP-8(��Sv/h),����,����(m/s),���J
2018/01/04,00:00,0.900,1.502,0.945,1.784,1.201,0.496,0.883,0.848,�k��,8.1,��
2018/01/04,00:10,0.900,1.504,0.943,1.782,1.202,0.494,0.882,0.847,�k��,7.7,��
2018/01/04,00:20,0.902,1.501,0.945,1.782,1.201,0.493,0.882,0.848,�k�k��,7.5,��
2018/01/04,00:30,0.900,1.502,0.944,1.782,1.201,0.494,0.884,0.849,�k��,6.5,��
2018/01/04,00:40,0.900,1.502,0.942,1.786,1.202,0.494,0.883,0.848,�k��,3.1,��
2018/01/04,00:50,0.899,1.502,0.943,1.784,1.200,0.495,0.883,0.848,�k��,4.6,��
2018/01/04,01:00,0.897,1.502,0.944,1.784,1.202,0.495,0.883,0.847,�k��,4.5,��
2018/01/04,01:10,0.900,1.502,0.941,1.784,1.201,0.494,0.884,0.846,�k��,5.4,��
2018/01/04,01:20,0.899,1.501,0.942,1.782,1.199,0.494,0.883,0.846,�k��,5.9,��
2018/01/04,01:30,0.899,1.502,0.940,1.783,1.199,0.493,0.882,0.847,�k�k��,4.5,��
2018/01/04,01:40,0.902,1.502,0.941,1.785,1.200,0.494,0.884,0.846,�k�k��,4.6,��
2018/01/04,01:50,0.900,1.501,0.947,1.782,1.198,0.494,0.883,0.847,�k�k��,4.8,��
2018/01/04,02:00,0.901,1.501,0.941,1.780,1.200,0.492,0.881,0.847,�k�k��,4.5,��
2018/01/04,02:10,0.898,1.498,0.942,1.782,1.198,0.494,0.882,0.847,�k��,5.9,��
2018/01/04,02:20,0.899,1.501,0.940,1.783,1.199,0.493,0.881,0.847,�k��,6.6,��
2018/01/04,02:30,0.900,1.503,0.940,1.783,1.198,0.493,0.880,0.846,�k��,6.8,��
2018/01/04,02:40,0.899,1.502,0.941,1.784,1.200,0.494,0.883,0.848,�k��,7.6,��
2018/01/04,02:50,0.900,1.499,0.942,1.781,1.199,0.492,0.883,0.848,�k��,6.2,��
2018/01/04,03:00,0.899,1.500,0.942,1.782,1.199,0.494,0.883,0.845,�k��,8.1,��
2018/01/04,03:10,0.899,1.500,0.940,1.783,1.198,0.493,0.883,0.848,�k��,6.5,��
2018/01/04,03:20,0.898,1.499,0.942,1.780,1.199,0.494,0.881,0.846,�k��,6.2,��
2018/01/04,03:30,0.897,1.502,0.940,1.782,1.199,0.493,0.882,0.847,�k��,6.0,��
2018/01/04,03:40,0.898,1.500,0.939,1.782,1.197,0.494,0.880,0.846,�k��,5.7,��
2018/01/04,03:50,0.900,1.501,0.942,1.783,1.198,0.492,0.882,0.845,�k��,5.1,��
2018/01/04,04:00,0.896,1.500,0.941,1.779,1.201,0.493,0.883,0.845,�k��,4.9,��
2018/01/04,04:10,0.897,1.500,0.941,1.781,1.198,0.494,0.882,0.845,�k��,5.1,��
2018/01/04,04:20,0.900,1.500,0.943,1.781,1.198,0.492,0.881,0.845,�k��,3.5,��
2018/01/04,04:30,0.898,1.499,0.940,1.779,1.198,0.493,0.880,0.844,���k��,3.4,��
2018/01/04,04:40,0.897,1.499,0.940,1.782,1.198,0.493,0.880,0.845,���k��,3.9,��
2018/01/04,04:50,0.896,1.498,0.941,1.778,1.198,0.494,0.879,0.845,�k��,4.7,��
2018/01/04,05:00,0.897,1.500,0.942,1.783,1.199,0.492,0.879,0.843,���k��,4.3,��
2018/01/04,05:10,0.897,1.501,0.941,1.781,1.197,0.493,0.882,0.847,���k��,3.3,��
2018/01/04,05:20,0.897,1.499,0.940,1.779,1.198,0.492,0.880,0.845,��,3.9,��
2018/01/04,05:30,0.897,1.496,0.942,1.781,1.196,0.490,0.880,0.846,��,3.7,��
2018/01/04,05:40,0.898,1.497,0.941,1.779,1.197,0.492,0.880,0.845,��,3.7,��
2018/01/04,05:50,0.896,1.499,0.939,1.779,1.196,0.493,0.880,0.845,��,3.3,��
2018/01/04,06:00,0.896,1.499,0.938,1.777,1.196,0.491,0.881,0.845,���쐼,2.8,��
2018/01/04,06:10,0.896,1.496,0.939,1.776,1.196,0.491,0.880,0.847,���쐼,2.6,��
2018/01/04,06:20,0.896,1.498,0.938,1.780,1.195,0.492,0.879,0.847,���쐼,2.2,��
2018/01/04,06:30,0.898,1.497,0.940,1.779,1.199,0.494,0.881,0.844,��,2.6,��
2018/01/04,06:40,0.897,1.501,0.938,1.779,1.199,0.490,0.879,0.845,��,3.3,��
2018/01/04,06:50,0.897,1.499,0.940,1.777,1.197,0.493,0.879,0.847,��,3.1,��
2018/01/04,07:00,0.897,1.497,0.940,1.778,1.197,0.492,0.879,0.847,��,2.6,��
2018/01/04,07:10,0.897,1.497,0.939,1.779,1.199,0.491,0.881,0.845,���쐼,2.3,��
2018/01/04,07:20,0.895,1.499,0.939,1.777,1.196,0.492,0.880,0.845,���쐼,2.6,��
2018/01/04,07:30,0.897,1.500,0.939,1.778,1.196,0.490,0.880,0.845,��,3.7,��
2018/01/04,07:40,0.897,1.498,0.939,1.779,1.198,0.491,0.879,0.845,���k��,4.6,��
2018/01/04,07:50,0.899,1.497,0.940,1.777,1.196,0.492,0.880,0.845,��,4.0,��
2018/01/04,08:00,0.896,1.500,0.940,1.780,1.198,0.494,0.878,0.847,���k��,4.8,��
2018/01/04,08:10,0.898,1.500,0.938,1.780,1.195,0.492,0.880,0.845,���k��,6.1,��
2018/01/04,08:20,0.900,1.502,0.941,1.780,1.198,0.492,0.881,0.846,���k��,5.7,��
2018/01/04,08:30,0.899,1.503,0.939,1.780,1.198,0.493,0.881,0.846,���k��,3.7,��
2018/01/04,08:40,0.899,1.503,0.941,1.781,1.198,0.494,0.882,0.847,���k��,3.7,��
2018/01/04,08:50,0.899,1.500,0.941,1.782,1.199,0.491,0.883,0.847,���k��,4.0,��
2018/01/04,09:00,0.899,1.501,0.942,1.781,1.198,0.493,0.883,0.847,�k��,4.0,��
2018/01/04,09:10,0.900,1.503,0.944,1.783,1.198,0.492,0.883,0.847,�k��,6.8,��
2018/01/04,09:20,0.899,1.501,0.942,1.783,1.199,0.493,0.885,0.846,�k��,4.5,��
2018/01/04,09:30,0.901,1.501,0.942,1.780,1.202,0.492,0.883,0.846,�k��,4.6,��
2018/01/04,09:40,0.899,1.504,0.941,1.780,1.200,0.492,0.884,0.847,�k�k��,4.6,��
2018/01/04,09:50,0.901,1.503,0.940,1.784,1.201,0.494,0.883,0.847,�k�k��,4.3,��
2018/01/04,10:00,0.902,1.504,0.941,1.783,1.203,0.494,0.883,0.847,�k�k��,4.2,��
2018/01/04,10:10,0.900,1.502,0.943,1.781,1.200,0.494,0.884,0.849,�k�k��,4.1,��
2018/01/04,10:20,0.901,1.505,0.942,1.782,1.200,0.493,0.881,0.845,�k,2.5,��
2018/01/04,10:30,0.901,1.503,0.943,1.783,1.201,0.494,0.882,0.846,�k�k��,3.1,��
2018/01/04,10:40,0.902,1.502,0.947,1.782,1.203,0.494,0.882,0.847,�k,2.2,��
2018/01/04,10:50,0.900,1.504,0.944,1.785,1.201,0.494,0.882,0.848,�k�k��,2.8,��
2018/01/04,11:00,0.901,1.504,0.943,1.785,1.201,0.494,0.881,0.848,�k,2.3,��
2018/01/04,11:10,0.901,1.499,0.943,1.783,1.203,0.493,0.881,0.846,�k,3.4,�L
2018/01/04,11:20,0.900,1.502,0.943,1.782,1.203,0.493,0.882,0.847,�k�k��,4.1,��
2018/01/04,11:30,0.903,1.501,0.944,1.785,1.202,0.492,0.881,0.846,�k�k��,3.4,��
2018/01/04,11:40,0.902,1.502,0.944,1.787,1.203,0.494,0.882,0.849,�k,3.7,��
2018/01/04,11:50,0.900,1.504,0.945,1.783,1.203,0.495,0.882,0.846,�k,3.2,��
2018/01/04,12:00,0.902,1.504,0.946,1.786,1.201,0.493,0.884,0.847,�k�k��,3.0,�L
2018/01/04,12:10,0.900,1.503,0.944,1.784,1.202,0.494,0.882,0.846,�k�k��,2.5,�L
2018/01/04,12:20,0.902,1.505,0.944,1.786,1.201,0.496,0.883,0.847,�k��,3.7,�L
2018/01/04,12:30,0.900,1.502,0.944,1.784,1.202,0.496,0.884,0.848,�k�k��,2.3,�L
2018/01/04,12:40,0.903,1.504,0.944,1.784,1.203,0.495,0.885,0.848,�k�k��,2.3,��
2018/01/04,12:50,0.904,1.505,0.943,1.785,1.201,0.495,0.884,0.847,�k,2.9,�L
2018/01/04,13:00,0.904,1.506,0.945,1.787,1.206,0.495,0.884,0.848,�k�k��,3.8,��
2018/01/04,13:10,0.902,1.506,0.945,1.786,1.205,0.495,0.884,0.849,�k��,3.1,�L
2018/01/04,13:20,0.903,1.503,0.944,1.784,1.204,0.496,0.884,0.846,���k��,3.1,��
2018/01/04,13:30,0.902,1.505,0.945,1.784,1.202,0.495,0.884,0.847,���k��,3.6,��
2018/01/04,13:40,0.901,1.506,0.945,1.788,1.203,0.495,0.885,0.846,���k��,4.1,��
2018/01/04,13:50,0.901,1.507,0.946,1.783,1.203,0.494,0.886,0.847,���k��,4.2,��
2018/01/04,14:00,0.904,1.503,0.945,1.785,1.203,0.494,0.883,0.847,���k��,3.7,��
2018/01/04,14:10,0.902,1.506,0.943,1.784,1.202,0.495,0.885,0.848,���k��,2.6,��
2018/01/04,14:20,0.902,1.505,0.944,1.782,1.202,0.493,0.884,0.847,���k��,2.3,��
2018/01/04,14:30,0.901,1.504,0.944,1.784,1.201,0.493,0.883,0.847,���k��,2.8,��
2018/01/04,14:40,0.902,1.504,0.945,1.786,1.203,0.494,0.883,0.848,���k��,3.0,��
2018/01/04,14:50,0.901,1.504,0.942,1.782,1.202,0.494,0.883,0.847,�k��,5.3,��
2018/01/04,15:00,0.903,1.503,0.944,1.784,1.202,0.494,0.885,0.847,�k��,4.3,��
2018/01/04,15:10,0.903,1.503,0.942,1.784,1.201,0.495,0.884,0.847,���k��,4.9,��
2018/01/04,15:20,0.902,1.502,0.945,1.780,1.202,0.494,0.884,0.847,���k��,5.8,��
2018/01/04,15:30,0.902,1.503,0.942,1.783,1.203,0.494,0.883,0.847,���k��,4.3,��
2018/01/04,15:40,0.900,1.502,0.944,1.782,1.201,0.493,0.883,0.846,���k��,4.5,��
2018/01/04,15:50,0.900,1.504,0.941,1.784,1.206,0.494,0.883,0.848,���k��,3.6,��
2018/01/04,16:00,0.902,1.501,0.943,1.785,1.201,0.492,0.885,0.848,��,4.0,��
2018/01/04,16:10,0.902,1.503,0.944,1.784,1.200,0.494,0.882,0.846,���k��,4.2,��
2018/01/04,16:20,0.901,1.506,0.943,1.782,1.200,0.494,0.881,0.847,���k��,4.8,��
2018/01/04,16:30,0.900,1.504,0.942,1.783,1.198,0.492,0.882,0.846,���k��,5.6,��
2018/01/04,16:40,0.900,1.502,0.943,1.782,1.202,0.492,0.882,0.846,���k��,4.8,��
2018/01/04,16:50,0.900,1.504,0.942,1.783,1.203,0.493,0.882,0.847,���k��,4.2,��
2018/01/04,17:00,0.899,1.503,0.945,1.784,1.200,0.493,0.883,0.846,��,4.5,��
2018/01/04,17:10,0.901,1.504,0.943,1.784,1.202,0.492,0.882,0.844,��,3.0,��
2018/01/04,17:20,0.898,1.503,0.942,1.783,1.200,0.493,0.881,0.848,���k��,1.5,��
2018/01/04,17:30,0.900,1.502,0.943,1.782,1.202,0.493,0.882,0.846,�k��,1.7,��
2018/01/04,17:40,0.900,1.504,0.942,1.781,1.202,0.492,0.883,0.847,�k�k��,2.9,��
2018/01/04,17:50,0.901,1.503,0.943,1.783,1.200,0.492,0.880,0.846,�k�k��,2.2,��
2018/01/04,18:00,0.899,1.502,0.941,1.779,1.202,0.494,0.882,0.845,�k�k��,3.6,��
2018/01/04,18:10,0.900,1.502,0.942,1.781,1.200,0.493,0.879,0.845,�k��,5.3,��
2018/01/04,18:20,0.899,1.504,0.941,1.783,1.200,0.493,0.881,0.846,�k��,6.7,��
2018/01/04,18:30,0.899,1.502,0.943,1.781,1.202,0.493,0.880,0.845,�k��,5.8,��
2018/01/04,18:40,0.899,1.505,0.942,1.782,1.202,0.493,0.882,0.846,���k��,6.7,��
2018/01/04,18:50,0.898,1.503,0.943,1.784,1.200,0.495,0.881,0.846,���k��,7.7,��
2018/01/04,19:00,0.900,1.503,0.942,1.781,1.203,0.493,0.882,0.846,���k��,8.4,��
2018/01/04,19:10,0.898,1.503,0.943,1.782,1.201,0.493,0.879,0.846,���k��,8.4,��
2018/01/04,19:20,0.900,1.501,0.942,1.781,1.201,0.493,0.881,0.845,���k��,6.0,��
2018/01/04,19:30,0.899,1.500,0.941,1.780,1.198,0.493,0.881,0.847,�k��,7.0,��
2018/01/04,19:40,0.898,1.502,0.942,1.781,1.201,0.492,0.883,0.846,�k��,5.3,��
2018/01/04,19:50,0.900,1.502,0.939,1.780,1.199,0.493,0.882,0.847,�k��,4.6,��
2018/01/04,20:00,0.897,1.503,0.940,1.779,1.199,0.492,0.881,0.846,�k��,2.3,��
2018/01/04,20:10,0.899,1.502,0.940,1.780,1.198,0.492,0.879,0.844,��,4.6,��
2018/01/04,20:20,0.899,1.500,0.941,1.779,1.199,0.492,0.879,0.846,���k��,6.6,��
2018/01/04,20:30,0.899,1.502,0.943,1.786,1.199,0.491,0.879,0.846,���k��,7.0,��
2018/01/04,20:40,0.898,1.501,0.940,1.780,1.199,0.492,0.879,0.846,���k��,3.5,��
2018/01/04,20:50,0.900,1.500,0.938,1.780,1.198,0.491,0.881,0.844,�k��,3.1,��
2018/01/04,21:00,0.897,1.500,0.941,1.782,1.196,0.491,0.879,0.846,�k��,3.9,��
2018/01/04,21:10,0.897,1.501,0.943,1.781,1.201,0.492,0.881,0.846,���k��,5.0,��
2018/01/04,21:20,0.897,1.501,0.942,1.779,1.201,0.492,0.880,0.846,���k��,5.4,��
2018/01/04,21:30,0.898,1.501,0.940,1.779,1.199,0.493,0.880,0.846,���k��,5.5,��
2018/01/04,21:40,0.900,1.502,0.941,1.779,1.199,0.492,0.878,0.846,��,5.7,��
2018/01/04,21:50,0.897,1.500,0.941,1.778,1.199,0.492,0.879,0.845,��,4.6,��
2018/01/04,22:00,0.898,1.502,0.938,1.778,1.201,0.493,0.881,0.844,���쐼,3.9,��
2018/01/04,22:10,0.897,1.501,0.940,1.779,1.197,0.491,0.880,0.846,��,3.6,��
2018/01/04,22:20,0.897,1.501,0.942,1.776,1.198,0.490,0.881,0.847,��,3.3,��
2018/01/04,22:30,0.897,1.500,0.938,1.778,1.196,0.493,0.879,0.846,���쐼,3.8,��
2018/01/04,22:40,0.897,1.500,0.940,1.780,1.198,0.491,0.879,0.843,��,4.5,��
2018/01/04,22:50,0.896,1.502,0.940,1.779,1.198,0.491,0.879,0.845,��,4.4,��
2018/01/04,23:00,0.897,1.501,0.940,1.778,1.199,0.490,0.879,0.847,��,4.8,��
2018/01/04,23:10,0.897,1.500,0.940,1.780,1.198,0.491,0.880,0.846,���쐼,4.6,��
2018/01/04,23:20,0.896,1.499,0.939,1.778,1.200,0.492,0.880,0.844,��,5.3,��
2018/01/04,23:30,0.898,1.501,0.939,1.780,1.197,0.492,0.881,0.844,��,5.2,��
2018/01/04,23:40,0.897,1.502,0.941,1.779,1.196,0.492,0.880,0.846,��,5.1,��
2018/01/04,23:50,0.897,1.500,0.941,1.780,1.200,0.492,0.881,0.844,���k��,6.2,��
